{"data":{"norad_id":61945,"epoch":"2026-05-25T00:24:23.488992Z","epoch_age_seconds":70820,"freshness":"FRESH","line1":"1 61945U 24209G   26145.01693853  .00138203  00000+0  11249-2 0  9990","line2":"2 61945  53.1577 355.1671 0001033 126.4736 233.6377 15.69748938 88668","mean_motion":15.69748938,"eccentricity":0.0001033,"inclination_deg":53.1577,"raan_deg":355.1671,"arg_perigee_deg":126.4736,"mean_anomaly_deg":233.6377,"bstar":0.0011249,"rev_number":8866,"period_min":91.734414665997,"perigee_km":358.91931725636,"apogee_km":360.31133688713,"semimajor_km":6737.7523270717,"source":"CELESTRAK","updated_at":"2026-05-25T13:38:19.487170Z"}}